Starlink 32100

operational
NORAD ID: 59686 Int'l Des: 2024-086 Owner: SPXS Country: US Constellation: starlink
LEOCIRCULAR

Über Starlink 32100

Beschreibung wird geladen...

Live-Position

3D-Globus wird geladen...

Nächste Überflüge

Höhenverlauf

Altitude vs Time

uPlot chart will show altitude changes over time

Zweizeiliger Elementsatz

1 59686U 24086E 25352.12010476 .00000098 00000-0 13100-4 0 9998
2 59686 42.9998 142.4507 0001115 271.1738 88.8986 15.27578202 91845
Epoch: 18. Dez. 2025 • Age: 17 hours

Aktueller Status

Höhe 483.8 km
Geschwindigkeit 7.62 km/s
Subsatellitenpunkt -6.82°S, 101.86°E
Startdatum 8. Mai 2024
Alter 1.6 years
Typ internet

Technische Details

Klassifizierung Payload
Masse 730.00 kg
Trockenmasse 700.00 kg
Gesamtmasse 730.00 kg
Länge 0.30 m
Durchmesser 4.10 m
Spannweite 29.00 m
Form Box + pan
Hersteller SPXS
Bus-Typ Starlink V2M
Phasenstatus In Orbit
Besitzer/Staat SPXS/US

Große Konstellationen

Loading constellations...